Simultaneous Nadir Overpasses (SNOs) Predictions

Prediction of SNOs between NOAA-19 and TERRA Satellite Orbit:

Table of predicted SNOs for the next 14.0 days since TLE Epoch: 3/16/2014
Index Date (NOAA-19) Time (NOAA-19) Lat,Lon (NOAA-19) SZA (NOAA-19 ) Date (TERRA) Time (TERRA) Lat,Lon (TERRA) SZA (TERRA ) Distance(km) Time Diff (sec)
1 03/18/2014 08:10:15 70.33, 58.37 71.16 03/18/2014 08:11:24 70.33, 58.33 71.16 1.38 69
2 03/18/2014 09:01:18 -70.21,-134.22 108.97 03/18/2014 09:00:54 -70.23,-134.18 108.96 2.16 24
3 03/20/2014 13:45:17 -70.22, 154.79 109.83 03/20/2014 13:45:23 -70.24, 154.71 109.82 3.20 6
4 03/20/2014 14:36:07 69.79, -37.27 69.72 03/20/2014 14:34:56 69.81, -38.25 69.74 37.66 71
5 03/22/2014 18:29:17 -70.29, 83.70 110.63 03/22/2014 18:29:56 -70.32, 83.69 110.61 2.70 39
6 03/22/2014 19:20:13 70.19,-108.87 69.25 03/22/2014 19:19:24 70.16,-108.89 69.23 2.58 49
7 03/24/2014 23:13:21 -70.58, 12.27 111.21 03/24/2014 23:14:32 -70.52, 12.83 111.27 21.72 71
8 03/25/2014 00:04:13 70.28,-179.98 68.48 03/25/2014 00:04:02 70.26,-179.91 68.46 3.29 11
9 03/27/2014 04:48:12 70.32, 108.97 67.66 03/27/2014 04:48:46 70.32, 108.99 67.65 0.70 34
10 03/27/2014 05:39:16 -70.21, -83.62 112.47 03/27/2014 05:38:17 -70.20, -83.56 112.49 2.57 59
11 03/29/2014 09:32:19 70.79, 37.23 67.27 03/29/2014 09:33:30 70.67, 38.29 67.14 41.31 71
12 03/29/2014 10:23:15 -70.25,-154.66 113.28 03/29/2014 10:23:06 -70.27,-154.66 113.27 2.17 9
